GW3356 Weather Reports


Display with metric or nautical units.
time (UTC)temp
F
wind
direction
speed
MPH
gust
MPH
rain 1hr
in
rain 24hr
in
rain mn
in
humidity
%
barometer
mb
20260906143447 77 50 0.0 1.0 0.00 0.00 0.00 79 1016.2
20260906142943 77 25 2.0 4.0 0.00 0.00 0.00 78 1016.4
20260906142436 77 64 0.0 2.0 0.00 0.00 0.00 80 1016.4
20260906141931 77 48 2.0 6.0 0.00 0.00 0.00 79 1016.2
20260906141426 77 62 0.0 4.0 0.00 0.00 0.00 80 1016.2
20260906140925 77 55 4.0 6.0 0.00 0.00 0.00 79 1016.0
20260906140420 77 44 0.0 3.0 0.00 0.00 0.00 80 1016.0
20260906135918 76 47 0.0 1.0 0.00 0.00 0.00 81 1016.2
20260906135418 76 352 3.0 4.0 0.00 0.00 0.00 81 1016.0
20260906134913 76 40 2.0 3.0 0.00 0.00 0.00 81 1015.9
20260906134409 76 32 1.0 2.0 0.00 0.00 0.00 82 1016.0
20260906133903 75 48 0.0 1.0 0.00 0.00 0.00 83 1016.0
20260906133359 75 26 3.0 6.0 0.00 0.00 0.00 82 1016.2
20260906132855 75 35 3.0 4.0 0.00 0.00 0.00 83 1015.9
20260906132349 75 37 0.0 4.0 0.00 0.00 0.00 84 1015.9
20260906131845 74 351 1.0 3.0 0.00 0.00 0.00 84 1016.0
20260906131341 74 47 0.0 6.0 0.00 0.00 0.00 84 1016.2
20260906130836 74 339 4.0 6.0 0.00 0.00 0.00 84 1016.2
20260906130336 74 42 0.0 1.0 0.00 0.00 0.00 85 1016.2
20260906125835 74 43 2.0 4.0 0.00 0.00 0.00 85 1016.3
20260906125332 74 46 0.0 2.0 0.00 0.00 0.00 85 1016.2
20260906124827 74 41 1.0 4.0 0.00 0.00 0.00 85 1016.2
20260906124323 73 14 2.0 2.0 0.00 0.00 0.00 86 1015.9
20260906123822 73 24 3.0 3.0 0.00 0.00 0.00 86 1015.9
20260906123317 73 46 0.0 1.0 0.00 0.00 0.00 86 1016.0
20260906122817 73 39 0.0 4.0 0.00 0.00 0.00 86 1015.8
20260906122312 73 34 0.0 1.0 0.00 0.00 0.00 87 1015.8
20260906121809 73 29 1.0 1.0 0.00 0.00 0.00 87 1015.8
20260906121305 73 40 2.0 6.0 0.00 0.00 0.00 87 1015.7
20260906120801 73 46 0.0 2.0 0.00 0.00 0.00 87 1015.5
20260906120257 73 51 0.0 1.0 0.00 0.00 0.00 87 1015.5
20260906115753 73 20 0.0 2.0 0.00 0.00 0.00 87 1015.2
20260906115248 73 43 0.0 1.0 0.00 0.00 0.00 87 1015.3
20260906114747 73 53 0.0 2.0 0.00 0.00 0.00 88 1015.2
20260906114242 73 53 1.0 2.0 0.00 0.00 0.00 88 1015.1
20260906113738 73 44 1.0 1.0 0.00 0.00 0.00 88 1015.1
20260906113237 73 40 0.0 2.0 0.00 0.00 0.00 87 1015.1
20260906112736 73 46 0.0 1.0 0.00 0.00 0.00 87 1015.2
20260906112234 74 47 3.0 4.0 0.00 0.00 0.00 87 1015.2
20260906111733 74 49 0.0 2.0 0.00 0.00 0.00 87 1015.1
20260906111233 74 44 1.0 3.0 0.00 0.00 0.00 87 1015.2
20260906110728 74 46 0.0 0.0 0.00 0.00 0.00 88 1015.0
20260906110224 74 40 0.0 1.0 0.00 0.00 0.00 87 1014.9
20260906105722 74 40 0.0 1.0 0.00 0.00 0.00 87 1014.9
20260906105219 75 46 0.0 2.0 0.00 0.00 0.00 87 1014.8
20260906104719 75 33 1.0 1.0 0.00 0.00 0.00 87 1014.8
20260906104218 75 54 0.0 1.0 0.00 0.00 0.00 87 1014.9
20260906103715 75 42 0.0 2.0 0.00 0.00 0.00 86 1014.9
20260906103211 75 42 0.0 1.0 0.00 0.00 0.00 86 1014.9
20260906102706 75 46 0.0 1.0 0.00 0.00 0.00 87 1014.6
20260906102206 75 28 1.0 2.0 0.00 0.00 0.00 86 1014.6
20260906101705 75 34 0.0 3.0 0.00 0.00 0.00 86 1014.5
20260906101201 75 29 0.0 1.0 0.00 0.00 0.00 86 1014.7
20260906100656 76 45 0.0 2.0 0.00 0.00 0.00 86 1014.6
20260906100156 76 46 0.0 4.0 0.00 0.00 0.00 86 1014.8
20260906095651 76 46 0.0 2.0 0.00 0.00 0.00 86 1014.6
20260906095146 76 45 0.0 2.0 0.00 0.00 0.00 86 1014.5
20260906094645 76 46 0.0 1.0 0.00 0.00 0.00 85 1014.3
20260906094141 76 49 0.0 1.0 0.00 0.00 0.00 85 1014.4
20260906093637 77 45 0.0 1.0 0.00 0.00 0.00 85 1014.5
20260906093137 77 45 0.0 1.0 0.00 0.00 0.00 85 1014.4
20260906092632 77 46 0.0 2.0 0.00 0.00 0.00 84 1014.3
20260906092132 77 39 0.0 1.0 0.00 0.00 0.00 83 1014.2
20260906091629 77 47 0.0 3.0 0.00 0.00 0.00 83 1014.5
20260906091126 78 47 0.0 2.0 0.00 0.00 0.00 83 1014.2
20260906090621 78 51 1.0 3.0 0.00 0.00 0.00 83 1014.1
20260906090120 78 43 1.0 1.0 0.00 0.00 0.00 83 1014.1
20260906085620 78 39 2.0 3.0 0.00 0.00 0.00 84 1014.2
20260906085114 78 39 1.0 2.0 0.00 0.00 0.00 84 1014.2
20260906084609 78 41 0.0 0.0 0.00 0.00 0.00 84 1014.1
20260906084107 78 37 1.0 3.0 0.00 0.00 0.00 84 1014.2
20260906083603 78 50 0.0 2.0 0.00 0.00 0.00 83 1014.0
20260906083103 79 37 3.0 3.0 0.00 0.00 0.00 83 1014.1
20260906082558 79 54 0.0 3.0 0.00 0.00 0.00 83 1013.9
20260906082054 79 56 0.0 2.0 0.00 0.00 0.00 83 1013.9
20260906081550 79 47 0.0 1.0 0.00 0.00 0.00 83 1013.8
20260906081045 79 50 0.0 0.0 0.00 0.00 0.00 83 1013.7
20260906080542 80 44 0.0 2.0 0.00 0.00 0.00 83 1013.8
20260906080038 80 36 1.0 2.0 0.00 0.00 0.00 83 1013.8
20260906075537 80 45 0.0 2.0 0.00 0.00 0.00 83 1013.9
20260906075032 80 51 0.0 1.0 0.00 0.00 0.00 82 1013.8
20260906074526 80 45 0.0 2.0 0.00 0.00 0.00 82 1014.2
20260906074025 80 44 0.0 1.0 0.00 0.00 0.00 83 1014.0
20260906073520 80 49 0.0 1.0 0.00 0.00 0.00 82 1014.0
20260906073016 80 50 0.0 2.0 0.00 0.00 0.00 82 1013.9
20260906072511 81 33 1.0 3.0 0.00 0.00 0.00 82 1014.0
20260906072008 81 45 1.0 1.0 0.00 0.00 0.00 82 1014.0
20260906071503 81 43 0.0 1.0 0.00 0.00 0.00 81 1014.0
20260906070958 81 56 0.0 3.0 0.00 0.00 0.00 81 1013.7
20260906070454 82 48 0.0 1.0 0.00 0.00 0.00 80 1014.0
20260906065950 82 61 0.0 1.0 0.00 0.00 0.00 80 1013.9
20260906065449 82 49 0.0 1.0 0.00 0.00 0.00 80 1013.8
20260906064945 82 44 0.0 1.0 0.00 0.00 0.00 79 1013.9
20260906064441 82 55 0.0 1.0 0.00 0.00 0.00 79 1014.0
20260906063935 82 48 0.0 1.0 0.00 0.00 0.00 79 1013.9
20260906063431 82 55 0.0 1.0 0.00 0.00 0.00 78 1013.9
20260906062926 82 61 1.0 2.0 0.00 0.00 0.00 78 1013.9
20260906062426 82 78 1.0 1.0 0.00 0.00 0.00 78 1013.9
20260906061921 82 45 1.0 2.0 0.00 0.00 0.00 78 1013.9
20260906061417 83 44 0.0 2.0 0.00 0.00 0.00 77 1014.0
20260906060911 83 39 0.0 1.0 0.00 0.00 0.00 77 1013.9
20260906060409 83 55 0.0 2.0 0.00 0.00 0.00 77 1013.9
20260906055905 83 55 0.0 0.0 0.00 0.00 0.00 76 1014.0
20260906055401 83 52 0.0 1.0 0.00 0.00 0.00 76 1014.2
20260906054855 83 42 0.0 0.0 0.00 0.00 0.00 75 1014.0
20260906054350 84 51 0.0 0.0 0.00 0.00 0.00 75 1014.1
20260906053847 84 51 0.0 0.0 0.00 0.00 0.00 75 1013.9
20260906053342 84 56 0.0 0.0 0.00 0.00 0.00 74 1013.8
20260906052838 84 51 0.0 1.0 0.00 0.00 0.00 74 1013.9
20260906052334 84 37 0.0 1.0 0.00 0.00 0.00 74 1014.0
20260906051831 84 50 0.0 1.0 0.00 0.00 0.00 74 1013.9
20260906051330 84 40 0.0 0.0 0.00 0.00 0.00 73 1013.8
20260906050826 84 47 0.0 0.0 0.00 0.00 0.00 73 1013.9
20260906050321 84 37 0.0 1.0 0.00 0.00 0.00 72 1013.9
20260906045819 84 37 1.0 1.0 0.00 0.00 0.00 72 1013.7
20260906045314 85 42 0.0 1.0 0.00 0.00 0.00 71 1014.0
20260906044811 85 42 0.0 0.0 0.00 0.00 0.00 71 1013.7
20260906044305 85 45 0.0 0.0 0.00 0.00 0.00 71 1013.7
20260906043801 85 47 0.0 1.0 0.00 0.00 0.00 71 1013.7
20260906043257 85 46 0.0 0.0 0.00 0.00 0.00 70 1013.7
20260906042756 85 43 0.0 1.0 0.00 0.00 0.00 70 1013.6
20260906042256 86 48 0.0 0.0 0.00 0.00 0.00 69 1013.6
20260906041751 86 45 0.0 0.0 0.00 0.00 0.00 69 1013.5
20260906041246 86 46 0.0 1.0 0.00 0.00 0.00 69 1013.6
20260906040742 86 51 0.0 3.0 0.00 0.00 0.00 68 1013.5
20260906040237 86 39 0.0 0.0 0.00 0.00 0.00 68 1013.3
20260906035732 86 47 0.0 1.0 0.00 0.00 0.00 67 1013.3
20260906035228 86 48 0.0 1.0 0.00 0.00 0.00 67 1013.5
20260906034727 86 39 0.0 2.0 0.00 0.00 0.00 66 1013.2
20260906034222 87 45 0.0 2.0 0.00 0.00 0.00 66 1013.4
20260906033718 87 39 0.0 2.0 0.00 0.00 0.00 65 1013.2
20260906033212 86 44 0.0 2.0 0.00 0.00 0.00 66 1013.5
20260906032709 86 32 0.0 2.0 0.00 0.00 0.00 66 1013.3
20260906032209 87 42 0.0 1.0 0.00 0.00 0.00 66 1013.4
20260906031704 87 45 0.0 1.0 0.00 0.00 0.00 65 1013.4
20260906031159 87 50 0.0 0.0 0.00 0.00 0.00 65 1013.2
20260906030700 87 48 0.0 0.0 0.00 0.00 0.00 65 1013.1
20260906030155 87 48 0.0 1.0 0.00 0.00 0.00 65 1013.1
20260906025654 87 42 0.0 0.0 0.00 0.00 0.00 65 1013.1
20260906025153 87 38 1.0 2.0 0.00 0.00 0.00 65 1013.0
20260906024648 87 48 0.0 2.0 0.00 0.00 0.00 65 1013.1
20260906024147 86 44 1.0 1.0 0.00 0.00 0.00 65 1013.0
20260906023643 86 42 0.0 2.0 0.00 0.00 0.00 65 1012.7
20260906023143 86 42 0.0 1.0 0.00 0.00 0.00 66 1012.8
20260906022638 86 29 0.0 0.0 0.00 0.00 0.00 66 1012.7
20260906022135 87 30 0.0 1.0 0.00 0.00 0.00 67 1012.6
20260906021630 87 30 0.0 0.0 0.00 0.00 0.00 64 1012.5
20260906021128 87 30 0.0 1.0 0.00 0.00 0.00 64 1012.6
20260906020629 87 30 0.0 0.0 0.00 0.00 0.00 64 1012.4
20260906020123 87 34 0.0 0.0 0.00 0.00 0.00 64 1012.2
20260906015619 87 34 0.0 1.0 0.00 0.00 0.00 64 1012.3
20260906015117 87 41 0.0 1.0 0.00 0.00 0.00 64 1012.2
20260906014612 87 38 0.0 1.0 0.00 0.00 0.00 62 1012.1
20260906014109 87 50 0.0 0.0 0.00 0.00 0.00 62 1012.2
20260906013603 87 50 0.0 0.0 0.00 0.00 0.00 62 1012.0
20260906013058 87 44 0.0 0.0 0.00 0.00 0.00 62 1011.9
20260906012553 88 41 0.0 0.0 0.00 0.00 0.00 61 1011.8
20260906012053 88 41 1.0 2.0 0.00 0.00 0.00 61 1011.9
20260906011549 88 38 0.0 2.0 0.00 0.00 0.00 60 1012.0
20260906011048 88 32 0.0 1.0 0.00 0.00 0.00 60 1011.7
20260906010544 89 47 0.0 0.0 0.00 0.00 0.00 59 1011.7
20260906010040 89 48 0.0 0.0 0.00 0.00 0.00 58 1011.6
20260906005539 90 36 0.0 0.0 0.00 0.00 0.00 57 1011.8
20260906005038 90 42 0.0 0.0 0.00 0.00 0.00 55 1011.5
20260906004538 90 37 0.0 1.0 0.00 0.00 0.00 56 1011.5
20260906004033 90 42 0.0 0.0 0.00 0.00 0.00 55 1011.5
20260906003529 91 50 0.0 2.0 0.00 0.00 0.00 54 1011.5
20260906003025 91 49 0.0 1.0 0.00 0.00 0.00 53 1011.7
20260906002525 91 46 0.0 3.0 0.00 0.00 0.00 52 1011.4
20260906002019 92 47 0.0 2.0 0.00 0.00 0.00 52 1011.7
20260906001515 92 34 0.0 2.0 0.00 0.00 0.00 51 1011.6
20260906001009 92 54 0.0 1.0 0.00 0.00 0.00 52 1011.6
20260906000506 93 46 0.0 1.0 0.00 0.00 0.00 51 1011.8
20260906000000 93 45 0.0 0.0 0.00 0.00 0.00 50 1011.7
20260905235459 93 43 0.0 0.0 0.00 0.00 0.00 49 1011.8
20260905234955 93 47 1.0 2.0 0.00 0.00 0.00 48 1011.8
20260905234451 93 24 3.0 3.0 0.00 0.00 0.00 48 1011.6
20260905233950 94 40 0.0 1.0 0.00 0.00 0.00 49 1011.4
20260905233446 94 41 0.0 0.0 0.00 0.00 0.00 49 1011.8
20260905232944 94 44 1.0 2.0 0.00 0.00 0.00 47 1011.8
20260905232441 95 36 0.0 2.0 0.00 0.00 0.00 49 1011.8
20260905231936 95 41 0.0 0.0 0.00 0.00 0.00 48 1011.8
20260905231432 95 41 0.0 0.0 0.00 0.00 0.00 47 1011.7
20260905230928 95 50 0.0 0.0 0.00 0.00 0.00 46 1011.8
20260905230426 95 48 0.0 0.0 0.00 0.00 0.00 46 1011.7
20260905225925 96 34 0.0 3.0 0.00 0.00 0.00 45 1011.8
20260905225420 96 48 0.0 1.0 0.00 0.00 0.00 44 1011.7
20260905224915 95 42 0.0 1.0 0.00 0.00 0.00 44 1011.6
20260905224411 95 45 0.0 1.0 0.00 0.00 0.00 44 1011.7
20260905223905 95 43 0.0 2.0 0.00 0.00 0.00 44 1011.6
20260905223403 96 46 0.0 1.0 0.00 0.00 0.00 44 1011.6
20260905222903 96 54 0.0 1.0 0.00 0.00 0.00 42 1011.4
20260905222402 97 37 4.0 7.0 0.00 0.00 0.00 41 1011.6
20260905221858 98 65 1.0 6.0 0.00 0.00 0.00 42 1011.6
20260905221355 99 26 2.0 10.0 0.00 0.00 0.00 40 1011.5
20260905220850 98 301 1.0 2.0 0.00 0.00 0.00 46 1011.8
20260905220346 99 23 1.0 2.0 0.00 0.00 0.00 47 1011.5
20260905215845 97 25 0.0 1.0 0.00 0.00 0.00 48 1011.7
20260905215342 97 39 0.0 0.0 0.00 0.00 0.00 51 1011.7
20260905214838 97 44 0.0 0.0 0.00 0.00 0.00 50 1011.7
20260905214332 97 26 0.0 1.0 0.00 0.00 0.00 50 1011.8
20260905213827 97 33 0.0 1.0 0.00 0.00 0.00 48 1011.7
20260905213323 97 350 1.0 1.0 0.00 0.00 0.00 46 1011.9
20260905212818 97 22 0.0 2.0 0.00 0.00 0.00 48 1011.8
20260905212318 97 267 2.0 3.0 0.00 0.00 0.00 46 1011.7
20260905211818 97 38 0.0 2.0 0.00 0.00 0.00 47 1011.5
20260905211313 98 14 1.0 3.0 0.00 0.00 0.00 45 1011.6
20260905210810 99 27 0.0 2.0 0.00 0.00 0.00 44 1011.9
20260905210309 98 354 1.0 2.0 0.00 0.00 0.00 44 1012.0
20260905205808 97 342 1.0 4.0 0.00 0.00 0.00 45 1012.2
20260905205306 96 30 0.0 1.0 0.00 0.00 0.00 50 1012.1
20260905204802 98 36 0.0 1.0 0.00 0.00 0.00 51 1012.1
20260905204259 99 63 1.0 2.0 0.00 0.00 0.00 48 1012.2
20260905203757 99 340 1.0 1.0 0.00 0.00 0.00 45 1012.2
20260905203253 100 80 1.0 2.0 0.00 0.00 0.00 43 1012.1
20260905202749 100 35 0.0 1.0 0.00 0.00 0.00 46 1012.1
20260905202244 100 38 1.0 4.0 0.00 0.00 0.00 44 1012.2
20260905201739 101 70 1.0 3.0 0.00 0.00 0.00 42 1012.3
20260905201234 100 3 1.0 3.0 0.00 0.00 0.00 43 1012.4
20260905200729 101 240 2.0 4.0 0.00 0.00 0.00 40 1012.3
20260905200225 100 13 1.0 2.0 0.00 0.00 0.00 36 1012.2
20260905195723 100 15 1.0 2.0 0.00 0.00 0.00 37 1012.4
20260905195218 102 334 2.0 3.0 0.00 0.00 0.00 35 1012.1
20260905194714 103 42 4.0 6.0 0.00 0.00 0.00 34 1012.1
20260905194213 103 35 2.0 6.0 0.00 0.00 0.00 34 1012.2
20260905193707 102 6 3.0 4.0 0.00 0.00 0.00 34 1012.2
20260905193202 102 18 2.0 7.0 0.00 0.00 0.00 35 1012.5
20260905192658 102 39 1.0 4.0 0.00 0.00 0.00 35 1012.5
20260905192154 102 39 2.0 4.0 0.00 0.00 0.00 35 1012.5
20260905191654 105 4 4.0 7.0 0.00 0.00 0.00 33 1012.6
20260905191151 104 23 1.0 4.0 0.00 0.00 0.00 35 1012.8
20260905190650 103 32 1.0 4.0 0.00 0.00 0.00 35 1012.7
20260905190149 102 33 0.0 1.0 0.00 0.00 0.00 35 1012.7
20260905185649 103 42 4.0 7.0 0.00 0.00 0.00 33 1012.7
20260905185144 103 15 1.0 2.0 0.00 0.00 0.00 34 1013.0
20260905184643 103 32 1.0 2.0 0.00 0.00 0.00 34 1012.9
20260905184142 102 16 2.0 3.0 0.00 0.00 0.00 34 1013.0
20260905183641 101 26 2.0 2.0 0.00 0.00 0.00 35 1013.0
20260905183137 101 36 1.0 3.0 0.00 0.00 0.00 37 1013.1
20260905182636 101 107 1.0 2.0 0.00 0.00 0.00 37 1013.3
20260905182136 102 28 3.0 4.0 0.00 0.00 0.00 40 1013.0
20260905181631 101 40 0.0 6.0 0.00 0.00 0.00 38 1013.2
20260905181130 102 46 0.0 2.0 0.00 0.00 0.00 37 1013.2
20260905180625 102 10 4.0 4.0 0.00 0.00 0.00 38 1013.2
20260905180121 100 86 2.0 3.0 0.00 0.00 0.00 38 1013.5
20260905175620 100 49 1.0 2.0 0.00 0.00 0.00 39 1013.5
20260905175115 100 68 1.0 6.0 0.00 0.00 0.00 39 1013.3
20260905174611 101 20 1.0 4.0 0.00 0.00 0.00 39 1013.6
20260905174106 102 43 1.0 2.0 0.00 0.00 0.00 39 1013.5
20260905173603 100 350 2.0 2.0 0.00 0.00 0.00 39 1013.6
20260905173058 99 52 1.0 2.0 0.00 0.00 0.00 41 1013.5
20260905172556 99 12 2.0 3.0 0.00 0.00 0.00 41 1013.6
20260905172052 99 87 0.0 3.0 0.00 0.00 0.00 41 1013.8
20260905171548 100 83 1.0 3.0 0.00 0.00 0.00 42 1013.6
20260905171044 100 53 1.0 1.0 0.00 0.00 0.00 41 1013.9
20260905170540 100 349 1.0 2.0 0.00 0.00 0.00 42 1013.9
20260905170035 99 55 0.0 0.0 0.00 0.00 0.00 44 1013.9
20260905165530 99 51 1.0 2.0 0.00 0.00 0.00 42 1014.0
20260905165026 100 49 1.0 6.0 0.00 0.00 0.00 43 1014.2
20260905164525 100 41 0.0 2.0 0.00 0.00 0.00 43 1014.3
20260905164020 99 37 0.0 2.0 0.00 0.00 0.00 43 1014.2
20260905163516 98 138 1.0 2.0 0.00 0.00 0.00 43 1014.2
20260905163012 98 36 1.0 2.0 0.00 0.00 0.00 45 1014.3
20260905162508 96 46 0.0 1.0 0.00 0.00 0.00 53 1014.5
20260905162002 97 36 1.0 2.0 0.00 0.00 0.00 52 1014.3
20260905161502 96 48 1.0 2.0 0.00 0.00 0.00 54 1014.1
20260905161000 95 62 0.0 1.0 0.00 0.00 0.00 56 1014.4
20260905160454 95 97 1.0 3.0 0.00 0.00 0.00 55 1014.4
20260905155953 94 54 0.0 2.0 0.00 0.00 0.00 56 1014.3
20260905155448 94 17 1.0 1.0 0.00 0.00 0.00 57 1014.3
20260905154947 94 229 1.0 3.0 0.00 0.00 0.00 57 1014.3
20260905154442 93 102 0.0 1.0 0.00 0.00 0.00 58 1014.4
20260905153938 93 130 1.0 1.0 0.00 0.00 0.00 56 1014.3
20260905153434 93 73 1.0 3.0 0.00 0.00 0.00 58 1014.4
20260905152933 92 58 0.0 1.0 0.00 0.00 0.00 62 1014.3
20260905152433 91 39 1.0 1.0 0.00 0.00 0.00 62 1014.4
20260905151928 90 300 2.0 2.0 0.00 0.00 0.00 62 1014.4
20260905151424 90 4 2.0 2.0 0.00 0.00 0.00 62 1014.4
20260905150925 89 55 0.0 2.0 0.00 0.00 0.00 65 1014.3
20260905150424 89 17 1.0 2.0 0.00 0.00 0.00 65 1014.4
20260905145920 88 57 0.0 2.0 0.00 0.00 0.00 66 1014.4
20260905145416 87 247 1.0 3.0 0.00 0.00 0.00 67 1014.4
20260905144915 86 5 2.0 2.0 0.00 0.00 0.00 69 1014.2
20260905144411 86 41 1.0 2.0 0.00 0.00 0.00 70 1014.2
20260905143909 86 226 1.0 2.0 0.00 0.00 0.00 71 1014.2